Location: Caltech
(34.1382°N, 118.1253°W)
Time: 11:13:40
(UTC-08:00)

COSMOS 2428 - Visible Passes

Search period start: 17 January 2017 00:00
Search period end: 27 January 2017 00:00
Orbit: 846 x 857 km, 70.9° (Epoch: 17 January)

Date Brightness Start Highest point End Pass type
(mag) Time Alt. Az. Time Alt. Az. Time Alt. Az.
17 Jan 5.3 18:56:55 10° W 18:59:56 14° NW 19:02:57 10° NNW visible
18 Jan 5.3 18:44:51 10° W 18:47:51 14° NW 18:50:52 10° NNW visible
19 Jan 5.3 18:32:48 10° W 18:35:47 14° NW 18:38:46 10° NNW visible
20 Jan 5.3 18:20:44 10° W 18:23:42 14° NW 18:26:41 10° NNW visible
21 Jan 5.2 18:08:41 10° W 18:11:38 14° NW 18:14:35 10° NNW visible
22 Jan 5.2 17:56:37 10° W 17:59:33 14° NW 18:02:30 10° NNW visible
23 Jan 5.2 17:44:33 10° W 17:47:28 14° NW 17:50:25 10° NNW visible
